Tulsa International Airport Airport (TUL)

 

Airport Diagram
Current Weather/Forecast (VFR Conditions)
METAR KTUL 241553Z 23006KT 10SM FEW080 SCT100 BKN120 OVC140 27/19 A2998 RMK AO2 RAB12E21 SLP144 P0000 T02720189
TAF KTUL 241120Z 2412/2512 VRB04KT P6SM BKN120 FM241500 22011KT P6SM BKN120 FM250000 20006KT P6SM SCT150 FM250800 32005KT P6SM SCT150

All Charts
General
Chart Name Download
AIRPORT DIAGRAM
TAKEOFF MINIMUMS
ALTERNATE MINIMUMS
RADAR MINIMUMS

Departures
Chart Name Download
TULSA NINE

Arrivals
Chart Name Download
VINTA THREE

Approaches
Chart Name Download
ILS OR LOC RWY 18L
ILS OR LOC RWY 18R
ILS OR LOC RWY 36R
ILS RWY 36R (SA CAT I)
ILS RWY 36R (CAT II)
RNAV (GPS) RWY 08
RNAV (GPS) RWY 18L
RNAV (GPS) RWY 18R
RNAV (GPS) RWY 26
RNAV (GPS) RWY 36L
RNAV (GPS) RWY 36R
VOR/DME RWY 08
HI-VOR/DME OR TACAN RWY 26
VOR OR TACAN RWY 26